sat.trackr.live / text

‹ back to catalog

PRAETORIAN SDA_605

NORAD 65568 · 2025-203D

PAYLOAD ACTIVE UNKNOWN

§ Identity

Operator
Country
US
Launch date
2025-09-10
Launch site
AFWTR
Launch vehicle
Mass (kg)
RCS (m²)

Purposes: military

External: N2YO · Heavens-Above · Gunter

§ Orbital elements

Epoch: 2026-05-25T02:37:11.443872Z

Period
104.09 min
Inclination
81.3035°
Eccentricity
0.0007206
Mean motion
13.83431346 rev/d
Perigee alt
946.5 km
Apogee alt
957.0 km
Semi-major
7,329.9 km
B*
6.1696e-5
RAAN
32.1091°
Arg perigee
251.6600°
Mean anomaly
108.3772°
Rev number
3,550

§ Raw data

PRAETORIAN SDA_6051 65568U 25203D   26145.10916023  .00000080  00000+0  61696-4 0  99912 65568  81.3035  32.1091 0007206 251.6600 108.3772 13.83431346 35500

JSON: /api/v1/satellites/65568 · /tle

For live sub-satellite position, see the globe view (requires WebGL).

§ Visibility from observer

Set your observer location to see the next 7 days of passes ≥ 10°. The values pass through the URL so the page stays shareable.

No JS? Fill the form by hand. The geolocation button needs JavaScript.